Regional Weather Roundup
Issued by NWS Sioux Falls, SD

Home | Current Version | Previous Version | Graphics & Text | Print | Product List | Glossary On
Versions: 1 2 3 4 5 6 7 8 9 10 11 12 13 14 15 16 17 18 19 20 21 22 23 24 25 26 27 28 29 30 31 32 33 34 35 36 37 38 39 40 41 42 43 44 45 46 47 48 49 50
323
ASUS43 KFSD 230402
RWRFSD

WEATHER ROUNDUP FOR SE SOUTH DAKOTA/SW MINNESOTA/NW IOWA
NATIONAL WEATHER SERVICE SIOUX FALLS SD
1100 PM CDT SAT JUL 22 2017

NOTE: "FAIR" INDICATES FEW OR NO CLOUDS BELOW 12,000 FEET WITH NO
SIGNIFICANT WEATHER AND OR OBSTRUCTIONS TO VISIBILITY.


SDZ038>040-050-052>070-230500-
SOUTHEAST SOUTH DAKOTA

CITY           SKY/WX    TMP DP  RH WIND       PRES   REMARKS
BROOKINGS      CLEAR     72  63  73 SW7       29.92R
CHAMBERLAIN    CLEAR     80  59  49 NE3       29.97R
HURON          CLEAR     74  61  63 NW8       29.94R
MADISON        FAIR      70  68  94 W5        29.94R
MITCHELL       CLEAR     73  66  78 W5        29.93R
SIOUX FALLS    CLEAR     71  67  87 SW3       29.92R
WINNER         FAIR      77  52  41 E7        29.98R
YANKTON        CLEAR     76  69  79 CALM      29.93S
$$

MNZ071-072-080-081-089-090-097-098-230500-
SOUTHWEST MINNESOTA

CITY           SKY/WX    TMP DP  RH WIND       PRES   REMARKS
FAIRMONT       CLEAR     73  70  90 CALM      29.89S
JACKSON        CLEAR     70  64  83 CALM      29.91F
LUVERNE        CLEAR     64  61  88 CALM      29.92S
MARSHALL       CLEAR     71  64  78 SW7       29.88S
MONTEVIDEO     CLEAR     70  63  78 CALM      29.86S
PIPESTONE      CLEAR     72  66  83 N3        29.93R
REDWOOD FALLS  CLEAR     72  67  84 S5        29.86S
WINDOM         CLEAR     72  64  78 CALM      29.90F
WORTHINGTON    CLEAR     69  63  81 W5        29.92F
$$

IAZ001>003-012>014-020>022-031-032-NEZ013-014-SDZ071-230500-
NORTHWEST IOWA

CITY           SKY/WX    TMP DP  RH WIND       PRES   REMARKS
CHEROKEE       CLEAR     68  68 100 CALM      29.92S
DENISON        CLEAR     73  73 100 CALM      29.92F
ESTHERVILLE    CLEAR     70  68  93 NW5       29.89F
ORANGE CITY    CLEAR     72  66  83 CALM      29.94R
SHELDON        CLEAR     66  64  94 CALM      29.91S
SIOUX CITY     CLEAR     69  69 100 CALM      29.92S
SPENCER        CLEAR     68  66  93 W5        29.91S
STORM LAKE     CLEAR     72  68  88 W7        29.94S
$$

ABBREVIATIONS USED IN REMARKS
   TC - TEMPERATURE IN CELSIUS
  WCI - WIND CHILL INDEX
   HX - HEAT INDEX
  VSB - VISIBILITY





USA.gov is the U.S. government's official web portal to all federal, state and local government web resources and services.